IRIDIUM 149

Last updated on Tue Sep 22 2026 00:03:21 GMT+0000 (Coordinated Universal Time)

1 43250U 18030B 26264.37795578 .00000039 00000+0 68915-5 0 9992 2 43250 86.3915 250.1266 0002332 87.8320 272.3142 14.34217674443942
UTC large
Height (km)
Speed (km/s)
/
Latitude / Longitude
Inclination (degrees)
Orbital Period (minutes)
Azimuth
Elevation
Range (km)
Doppler Factor

Next 0 passes for location: London (51.5072 / 0.1276)

No passes found over London.
IRIDIUM 149